AirNav   Bose Proflight Series 2 Wireless Aviation Headset
 
 904 users online  

PS01 Sterling Heliport
Croydon, Pennsylvania, USA

GOING TO CROYDON?


FAA INFORMATION EFFECTIVE 07 NOVEMBER 2019

Location

FAA Identifier: PS01
Lat/Long: 40-04-52.6000N 074-53-39.2000W
40-04.876667N 074-53.653333W
40.0812778,-74.8942222
(estimated)
Elevation: 24 ft. / 7 m (estimated)
From city: 1 mile SE of CROYDON, PA
Time zone: UTC -5 (UTC -4 during Daylight Saving Time)
Zip code: 19021

Heliport Operations

Heliport use: Private use. Permission required prior to landing
Activation date: 10/2006
Control tower: no
ARTCC: NEW YORK CENTER
FSS: WILLIAMSPORT FLIGHT SERVICE STATION
Attendance: MON-FRI 0800-1700
Wind indicator: yes
Segmented circle: no

Heliport Communications

WX ASOS at PNE (5 nm W): PHONE 215-677-0146
WX ASOS at VAY (9 nm S): 119.325 (609-267-1176)
WX ASOS at TTN (12 nm N): 126.775 (609-538-8690)
WX AWOS-3 at LOM (17 nm W): 118.925 (215-646-1068)
WX ASOS at DYL (18 nm NW): 118.875 (215-345-0392)

Nearby radio navigation aids

VOR radial/distance  VOR name  Freq  Var
ARDr187/10.3YARDLEY VOR/DME108.2010W
GXUr299/14.3MC GUIRE VORTAC110.6012W
RBVr258/19.7ROBBINSVILLE VORTAC113.8010W
CYNr317/26.5COYLE VORTAC113.4010W
SBJr203/30.9SOLBERG VOR/DME112.9010W
PTWr114/31.7POTTSTOWN VORTAC116.5009W
OODr045/32.7WOODSTOWN VORTAC112.8010W
VCNr016/32.8CEDAR LAKE VOR/DME115.2010W
COLr259/36.4COLTS NECK VOR/DME115.4011W
MXEr084/37.0MODENA VORTAC113.2009W

 
NDB name  Hdg/Dist  Freq  Var  ID
AMBLER110/18.127512WING .. -. --.
LAKEHURST286/25.839611WNEL -. . .-..

Heliport Services

Airframe service: MAJOR
Powerplant service: MAJOR

Runway Information

Helipad H1

Dimensions: 50 x 50 ft. / 15 x 15 m
Surface: concrete, in good condition
Traffic pattern: leftleft

Heliport Ownership and Management from official FAA records

Ownership: Privately-owned
Owner: STERLING HELICOPTER
1226 RIVER ROAD
CROYDON, PA 19021
Phone 215-271-2510
Manager: PHIL BIDDEN
1226 RIVER ROAD
CROYDON, PA 19021
Phone 215-271-2510

Additional Remarks

CALL PRIOR TO USE FOR PERMISSION, NOISE ABATEMENT PROC & PREF FLT ROUTE.
AVOID OVR FLT OF HOMES & SCHOOL 0.5 NM NE.
FOR CD CTC PHILADELPHIA APCH AT 800-354-9884.

Instrument Procedures

There are no published instrument procedures at PS01.

Some nearby airports with instrument procedures:

KPNE - Northeast Philadelphia Airport (5 nm W)
KVAY - South Jersey Regional Airport (9 nm S)
N14 - Flying W Airport (10 nm SE)
KTTN - Trenton Mercer Airport (12 nm N)
KWRI - McGuire Field (Joint Base Mc Guire Dix Lakehurst) Airport (14 nm E)
N87 - Trenton-Robbinsville Airport (16 nm NE)
KLOM - Wings Field Airport (17 nm W)
19N - Camden County Airport (18 nm S)
KDYL - Doylestown Airport (18 nm NW)
 
Loc | Ops | Rwys | IFR | FBO | Links
Com | Nav | Svcs | Stats | Notes
Area around PS01 (Sterling Heliport)
 
Road maps at: MapQuest Bing Google
 
Aerial photo
No photo
 
Sectional chart

 
Airport distance calculator
Flying to Sterling Heliport? Find the distance to fly.

From to PS01

Sunrise and sunset
Times for 14-Nov-2019
 Local
(UTC-5)
 Zulu
(UTC)
Morning civil twilight06:1611:16
Sunrise06:4511:45
Sunset16:4321:43
Evening civil twilight17:1222:12

Current date and time
Zulu (UTC)  15-Nov-2019 00:15:16
Local (UTC-5)  14-Nov-2019 19:15:16
 
METAR
KPNE 
6nm W 
142354Z 00000KT 10SM CLR 04/M05 A3033 RMK AO2 SLP271 T00441050 10083 20044 58005
KVAY 
9nm S 
ASOS 119.325 609-267-1176
142354Z AUTO 00000KT 10SM CLR M01/M04 A3032 RMK AO2 SLP269 T10061039 10083 21006 58004
KTTN 
13nm N 
ASOS 133.70 609-538-8690
142353Z 22003KT 10SM CLR 03/M04 A3031 RMK AO2 SLP260 T00331044 10072 20028 58004
KWRI 
15nm E 
142356Z AUTO 17003KT 10SM CLR 02/M02 A3031 RMK AO2 SLP265 T00221020 10080 20022 58006
KLOM 
17nm W 
142355Z AUTO 00000KT 10SM CLR M01/M04 A3032 RMK AO2 T10071040 10069 21010 400691073
KDYL 
18nm NW 
142354Z AUTO 17004KT 10SM CLR 02/M05 A3030 RMK AO2 SLP268 T00221050 10072 20022 58003
TAF
KPNE 
6nm W 
141730Z 1418/1518 22010G17KT P6SM SCT250 FM142200 22005KT P6SM BKN250 FM150400 VRB03KT P6SM BKN250 FM151500 30006KT P6SM SCT250
KTTN 
13nm N 
141730Z 1418/1518 21010KT P6SM SCT250 FM142200 22005KT P6SM BKN200 FM150400 VRB03KT P6SM BKN250 FM151500 30006KT P6SM SCT250
KWRI 
15nm E 
141800Z 1418/1524 21009KT 9999 FEW150 SCT250 QNH3030INS BECMG 1506/1507 VRB03KT 9999 SCT250 QNH3020INS WND 27009KT AFT 1512 TX12/1517Z TNM01/1511Z
NOTAMs
Click for the latest NOTAMs
NOTAMs are issued by the DoD/FAA and will open in a separate window not controlled by AirNav.

 

 
 

Would you like to see your business listed on this page?

 If your business provides an interesting product or service to pilots, flight crews, aircraft, or users of the Sterling Heliport, you should consider listing it here.  To start the listing process, click on the button below
 
Add a business
 

Other Pages about Sterling Heliport

Update a link
 
Copyright © AirNav, LLC. All rights reserved. Privacy Policy  Contact